Probability
0 0 0 0 0 0 0 0 0 0 3 16 6 13 19 23 32 42 61 68 74 81 87 87 84 94 84 77 87 84 74 74 81 81 77 68 65 65 65 48 29 42 42 42
3 0 0 0 0 0 0 0 0 0 10 19 35 32 39 45 45 58 71 71 77 90 97 94 94 97 90 87 90 94 87 74 84 81 77 68 65 68 65 55 52 45 45 45
3 0 0 0 0 0 0 0 0 6 19 35 32 45 65 65 52 61 65 74 84 90 94 94 94 90 90 84 87 87 87 84 87 84 77 68 61 65 65 55 58 55 45 52
6 0 0 0 0 0 3 3 6 23 26 29 48 58 71 65 74 71 74 77 87 87 90 90 90 87 87 81 84 84 84 81 84 87 74 71 68 68 68 68 55 58 52 48
13 0 0 0 3 3 6 10 13 29 23 29 35 35 42 48 52 68 65 81 84 71 74 77 77 81 81 74 74 77 77 74 74 71 77 74 77 71 71 68 65 52 58 58
13 0 0 0 0 0 0 10 16 32 42 39 45 45 39 55 61 48 55 61 71 61 61 81 77 71 74 74 74 68 65 68 74 74 71 68 58 65 55 55 55 55 48 58
6 0 0 0 0 0 0 32 23 26 48 55 77 61 48 35 42 48 61 58 68 65 65 65 61 68 65 61 58 48 42 45 52 55 55 55 55 55 58 55 48 48 42 45
0 0 3 10 6 29 58 55 39 39 52 65 52 42 32 39 39 45 45 42 45 58 55 55 61 58 52 45 29 29 26 26 29 32 29 29 39 39 42 45 42 48 52 48
10 10 29 26 29 39 52 45 42 35 35 42 29 32 32 39 35 32 32 32 32 29 26 29 29 32 29 19 19 19 16 16 19 19 19 23 26 29 35 35 23 19 16 23
10 6 13 19 32 29 26 29 23 26 32 26 19 26 26 32 29 26 23 26 26 23 23 19 23 19 23 16 16 16 16 16 13 13 13 10 10 13 13 13 13 6 13 13
6 6 6 19 16 19 16 23 16 16 6 16 16 19 26 26 19 19 19 19 19 19 19 19 16 16 13 13 13 16 13 13 10 6 6 10 6 3 3 3 6 6 6 3
6 13 16 19 19 16 23 16 19 23 13 19 19 16 16 19 19 19 19 19 19 16 13 13 13 13 13 13 13 13 13 13 3 3 6 3 6 3 3 0 0 0 0 0
6 3 10 3 10 16 23 13 10 10 10 10 10 10 13 16 16 16 13 16 13 6 6 6 6 3 6 6 3 6 10 10 3 3 6 3 3 6 6 0 0 0 0 0
16 16 13 16 13 13 10 10 6 3 3 3 10 10 10 6 6 3 6 6 6 6 3 3 3 3 3 3 3 3 3 6 6 3 6 3 3 3 3 6 0 0 0 0
23 19 13 19 6 6 6 6 6 0 0 3 3 3 3 3 3 3 3 3 3 3 3 3 6 6 3 3 3 3 3 6 6 3 6 3 6 3 3 3 3 0 3 0
0 6 10 6 6 3 0 0 0 0 0 0 0 0 3 3 3 3 3 3 3 3 3 3 3 3 3 3 6 6 3 0 0 3 0 0 3 3 3 3 3 3 0 0
10 13 6 6 3 0 0 0 0 0 0 0 0 0 0 0 0 0 0 0 0 3 3 3 3 3 3 3 3 3 3 0 0 0 0 0 0 3 3 3 3 3 3 0
3 3 3 3 0 0 0 0 0 0 0 0 0 0 0 0 0 0 0 0 0 0 0 0 0 0 0 0 3 3 3 0 0 0 0 0 0 3 3 3 3 3 3 0
3 3 3 3 0 0 0 0 0 0 0 0 0 0 0 0 0 0 0 0 0 0 0 0 0 0 0 0 0 0 0 0 0 0 0 0 0 0 0 0 3 0 0 0
0 0 0 0 0 0 0 0 0 0 0 0 0 0 0 0 0 0 0 0 0 0 0 0 0 0 0 0 0 0 0 0 0 0 0 0 0 0 0 0 0 0 0 0
0 0 0 0 0 0 0 0 0 0 0 0 0 0 0 0 0 0 0 0 0 0 0 0 0 0 0 0 0 0 0 0 0 0 0 0 0 0 0 0 0 0 0 0
0 0 0 0 0 0 0 0 0 0 0 0 0 0 0 0 0 0 0 0 0 0 0 0 0 0 0 0 0 0 0 0 0 0 0 0 0 0 0 0 0 0 0 0
0 0 0 0 0 0 0 0 0 0 0 0 0 0 0 0 0 0 0 0 0 0 0 0 0 0 0 0 0 0 0 0 0 0 0 0 0 0 0 0 0 0 0 0
0 0 0 0 0 0 0 0 0 0 0 0 0 0 0 0 0 0 0 0 0 0 0 0 0 0 0 0 0 0 0 0 0 0 0 0 0 0 0 0 0 0 0 0
0 0 0 0 0 0 0 0 0 0 0 0 0 0 0 0 0 0 0 0 0 0 0 0 0 0 0 0 0 0 0 0 0 0 0 0 0 0 0 0 0 0 0 0
0 0 0 0 0 0 0 0 0 0 0 0 0 0 0 0 0 0 0 0 0 0 0 0 0 0 0 0 0 0 0 0 0 0 0 0 0 0 0 0 0 0 0 0
0 0 0 0 0 0 0 0 0 0 0 0 0 0 0 0 0 0 0 0 0 0 0 0 0 0 0 0 0 0 0 0 0 0 0 0 0 0 0 0 0 0 0 0
Height
5819 5820 5821 5821 5823 5826 5829 5830 5831 5831 5830 5828 5827 5829 5831 5831 5831 5831 5832 5832 5833 5833 5834 5834 5835 5835 5836 5837 5838 5839 5840 5841 5842 5842 5843 5843 5843 5843 5843 5843 5842 5842 5841 5840
5812 5815 5815 5817 5819 5820 5822 5825 5827 5827 5825 5825 5825 5825 5827 5828 5828 5828 5828 5829 5830 5830 5831 5831 5832 5832 5833 5834 5835 5835 5836 5837 5837 5837 5837 5837 5837 5837 5837 5836 5835 5834 5834 5833
5806 5809 5810 5812 5815 5816 5818 5820 5822 5822 5821 5820 5822 5822 5823 5823 5823 5823 5824 5825 5826 5827 5827 5828 5828 5828 5829 5830 5830 5831 5831 5832 5832 5832 5831 5831 5830 5830 5829 5828 5827 5826 5825 5824
5799 5803 5804 5810 5810 5811 5812 5814 5815 5815 5816 5817 5817 5817 5818 5819 5819 5820 5821 5821 5821 5822 5823 5824 5824 5824 5824 5825 5825 5825 5825 5825 5825 5825 5824 5823 5823 5822 5821 5820 5819 5818 5816 5815
5793 5795 5798 5803 5804 5805 5806 5808 5808 5810 5811 5812 5812 5812 5812 5813 5814 5815 5816 5816 5817 5818 5818 5818 5819 5819 5819 5819 5819 5818 5818 5818 5818 5817 5816 5815 5814 5813 5812 5811 5809 5808 5807 5805
5787 5790 5792 5795 5797 5798 5800 5800 5802 5804 5805 5806 5807 5807 5807 5808 5808 5809 5810 5811 5812 5812 5812 5813 5813 5812 5813 5812 5812 5811 5810 5810 5809 5808 5807 5806 5805 5804 5803 5801 5799 5797 5796 5795
5781 5783 5784 5787 5789 5792 5794 5794 5795 5797 5798 5799 5800 5801 5801 5802 5803 5804 5804 5805 5805 5805 5806 5806 5805 5804 5805 5805 5804 5804 5802 5801 5799 5797 5796 5796 5795 5794 5793 5792 5790 5788 5786 5786
5775 5777 5779 5780 5783 5785 5786 5788 5790 5790 5791 5793 5794 5794 5795 5796 5797 5798 5798 5798 5799 5799 5799 5799 5798 5797 5797 5796 5795 5794 5793 5792 5790 5787 5786 5785 5785 5784 5783 5781 5780 5778 5777 5776
5767 5771 5772 5774 5777 5778 5780 5782 5783 5784 5785 5787 5788 5788 5789 5790 5791 5791 5791 5791 5792 5792 5792 5792 5791 5790 5789 5788 5787 5785 5784 5783 5782 5780 5777 5775 5775 5774 5772 5770 5769 5767 5766 5765
5760 5762 5765 5767 5769 5771 5774 5776 5777 5779 5780 5781 5781 5782 5782 5783 5783 5784 5784 5784 5784 5784 5784 5783 5782 5782 5780 5779 5778 5776 5775 5773 5771 5770 5768 5766 5765 5764 5762 5760 5759 5757 5755 5754
5754 5756 5757 5760 5763 5765 5768 5770 5772 5773 5774 5774 5775 5775 5776 5776 5776 5776 5776 5776 5776 5775 5775 5775 5774 5772 5771 5770 5768 5766 5765 5763 5761 5760 5758 5756 5755 5753 5752 5750 5748 5746 5744 5741
5749 5750 5752 5755 5756 5759 5762 5764 5765 5766 5767 5768 5768 5769 5769 5769 5769 5769 5768 5768 5767 5766 5766 5765 5764 5762 5761 5759 5758 5756 5754 5753 5751 5749 5748 5746 5744 5742 5740 5739 5737 5734 5732 5729
5744 5746 5748 5750 5752 5754 5756 5758 5758 5759 5759 5760 5761 5761 5761 5761 5761 5760 5760 5759 5758 5757 5756 5755 5754 5753 5751 5750 5748 5746 5744 5742 5740 5738 5737 5735 5733 5731 5729 5726 5724 5722 5719 5716
5741 5743 5744 5746 5747 5748 5750 5751 5752 5752 5752 5753 5753 5754 5754 5753 5753 5752 5751 5751 5749 5748 5747 5746 5744 5743 5741 5739 5737 5735 5733 5731 5729 5727 5725 5723 5721 5719 5716 5714 5711 5708 5705 5701
5737 5739 5740 5741 5742 5743 5744 5744 5745 5745 5746 5746 5746 5746 5746 5745 5745 5744 5743 5741 5740 5739 5737 5736 5734 5732 5730 5729 5727 5725 5722 5720 5718 5715 5713 5710 5708 5706 5703 5700 5697 5694 5690 5686
5733 5734 5735 5736 5737 5738 5738 5739 5739 5739 5739 5739 5739 5739 5738 5737 5736 5735 5734 5732 5731 5729 5728 5726 5724 5722 5720 5718 5715 5713 5711 5708 5706 5703 5701 5698 5695 5692 5689 5686 5682 5678 5674 5669
5728 5730 5730 5730 5731 5732 5732 5733 5733 5733 5733 5732 5732 5731 5730 5729 5728 5727 5725 5723 5721 5720 5718 5716 5713 5711 5709 5706 5704 5701 5699 5696 5694 5691 5688 5685 5681 5678 5674 5670 5666 5662 5657 5652
5724 5725 5725 5725 5726 5726 5727 5727 5726 5726 5725 5725 5724 5723 5722 5721 5720 5718 5716 5714 5712 5710 5707 5705 5703 5700 5698 5695 5692 5689 5686 5683 5680 5677 5674 5670 5667 5663 5658 5654 5650 5645 5640 5636
5719 5719 5720 5720 5720 5720 5720 5720 5719 5719 5718 5717 5716 5715 5714 5712 5711 5709 5706 5704 5702 5699 5697 5694 5691 5689 5686 5683 5680 5677 5673 5670 5666 5662 5658 5655 5651 5646 5642 5637 5633 5628 5623 5619
5713 5714 5714 5714 5714 5714 5713 5713 5712 5712 5710 5709 5708 5706 5705 5703 5701 5698 5696 5693 5691 5688 5685 5682 5680 5677 5673 5670 5666 5663 5659 5655 5651 5647 5643 5639 5634 5630 5625 5621 5616 5612 5607 5603
5708 5708 5708 5708 5708 5707 5707 5706 5705 5704 5703 5701 5699 5697 5695 5693 5690 5687 5685 5682 5679 5676 5673 5669 5667 5664 5660 5656 5652 5649 5645 5640 5636 5632 5628 5624 5619 5615 5611 5606 5602 5597 5593 5589
5702 5702 5702 5701 5701 5700 5699 5698 5697 5695 5694 5692 5689 5687 5685 5682 5679 5676 5673 5670 5667 5664 5660 5656 5653 5650 5646 5642 5638 5634 5630 5626 5621 5617 5613 5609 5605 5601 5597 5593 5589 5585 5581 5577
5695 5695 5694 5694 5693 5692 5691 5689 5687 5686 5684 5682 5679 5677 5674 5671 5667 5664 5661 5657 5654 5650 5647 5643 5639 5635 5632 5628 5624 5620 5616 5612 5608 5604 5600 5596 5592 5589 5585 5581 5578 5574 5570 5567
5688 5688 5687 5686 5684 5683 5682 5680 5678 5676 5673 5671 5668 5665 5662 5659 5655 5651 5648 5644 5640 5637 5633 5629 5626 5622 5618 5614 5611 5607 5603 5599 5596 5592 5588 5585 5581 5578 5575 5571 5568 5564 5561 5557
5681 5680 5679 5677 5676 5674 5672 5670 5668 5665 5663 5660 5657 5653 5650 5646 5643 5639 5635 5632 5628 5624 5620 5616 5612 5609 5605 5602 5598 5595 5591 5588 5585 5581 5578 5575 5571 5568 5565 5562 5559 5555 5552 5549
5673 5671 5670 5669 5667 5665 5662 5660 5657 5654 5651 5648 5645 5642 5638 5634 5631 5627 5623 5620 5616 5612 5608 5604 5600 5597 5593 5590 5587 5583 5580 5578 5575 5572 5568 5565 5562 5559 5556 5553 5550 5548 5545 5542
5664 5663 5661 5660 5657 5655 5652 5649 5647 5644 5641 5637 5634 5630 5626 5623 5619 5615 5611 5608 5604 5600 5596 5592 5589 5586 5582 5579 5576 5573 5570 5568 5565 5563 5560 5557 5554 5551 5549 5546 5543 5541 5539 5536
Wind_Speed
30 29 27 25 21 20 20 18 19 19 21 21 17 15 15 15 14 14 14 14 13 12 12 11 11 12 12 13 13 14 15 16 17 19 20 21 22 23 24 25 25 26 27 27
30 28 26 23 20 18 16 15 17 20 22 21 21 18 17 18 18 16 16 16 15 15 14 14 14 14 14 15 16 16 17 18 19 21 22 23 24 25 25 26 27 27 28 28
29 29 29 26 21 19 18 18 21 22 23 23 24 23 21 20 20 17 16 18 18 17 17 17 17 18 17 18 19 20 21 22 22 23 24 26 27 27 28 28 29 29 30 31
30 29 30 25 22 22 22 21 23 23 23 23 24 24 23 22 20 18 19 19 19 19 19 20 20 20 20 21 22 23 24 25 25 26 27 28 30 30 30 31 31 32 32 32
29 29 27 26 26 25 24 24 25 25 25 25 24 24 24 22 21 20 20 20 21 21 22 22 23 23 24 25 26 26 27 27 28 29 30 31 32 33 33 33 33 35 35 35
29 30 28 27 26 25 24 25 25 25 26 25 25 25 24 21 20 20 20 21 22 23 24 25 25 26 27 28 28 29 29 30 32 33 33 34 34 34 35 35 35 36 36 36
29 30 30 29 25 25 24 24 24 24 25 25 26 25 23 22 22 22 23 23 24 25 26 26 27 28 28 30 30 31 32 33 35 36 36 36 36 37 37 38 37 37 37 36
29 30 30 28 27 25 24 24 24 23 24 26 25 25 25 24 24 25 25 25 25 26 26 27 29 30 31 32 32 33 34 35 36 37 37 37 37 37 38 39 39 37 37 38
29 31 30 29 29 26 25 25 24 23 24 25 26 26 26 25 26 26 27 27 27 28 29 29 30 32 33 34 35 36 36 37 37 38 38 37 37 37 38 37 37 38 39 40
26 29 29 26 27 27 26 25 25 26 26 25 25 26 25 26 26 27 28 29 29 30 30 31 32 33 35 36 37 37 38 39 38 38 39 39 39 39 38 37 38 39 39 40
25 24 25 25 25 24 24 25 26 25 25 26 26 26 26 27 27 28 28 29 30 30 31 31 32 34 35 37 37 38 39 38 38 38 38 38 39 38 38 38 38 39 40 42
22 21 21 21 21 22 24 24 25 26 25 25 26 26 26 27 27 28 29 29 31 32 33 33 34 35 35 36 37 38 38 38 38 38 39 39 38 38 38 39 40 41 42 44
22 21 21 21 21 22 23 24 25 25 24 25 26 26 26 27 28 29 29 29 31 32 32 33 34 34 35 37 37 38 38 38 39 39 39 39 38 39 40 41 42 43 44 46
18 19 19 19 20 21 22 23 23 23 24 25 26 26 26 27 28 29 29 30 30 31 33 33 34 35 36 36 36 37 38 39 39 40 40 40 40 41 42 43 44 45 47 49
17 18 19 19 20 21 22 23 23 23 24 24 25 26 27 27 28 29 29 30 31 32 33 34 34 35 36 37 37 38 38 38 38 39 40 41 41 42 43 45 46 48 50 51
16 17 18 19 20 20 21 22 23 24 24 25 25 26 27 28 29 30 31 32 32 33 34 35 35 36 36 37 37 38 39 39 40 41 42 43 44 45 47 48 50 52 54 55
17 17 18 18 19 20 21 22 23 24 24 25 25 26 27 28 29 31 31 33 33 34 34 35 36 36 37 38 39 39 40 41 41 42 43 45 47 48 49 51 52 53 55 56
17 17 18 19 20 20 21 22 22 23 24 25 26 27 28 29 30 32 32 33 34 35 36 37 37 38 39 39 39 40 41 42 43 45 47 48 50 51 51 52 53 54 55 55
17 18 18 18 19 20 21 22 23 24 25 26 27 28 29 30 31 33 34 34 35 36 36 37 38 39 40 40 40 42 43 45 46 48 49 50 51 52 52 53 53 53 53 53
18 19 19 20 21 22 22 23 24 25 27 28 29 30 32 34 35 36 37 38 38 39 40 40 41 42 43 43 44 45 46 47 48 49 50 50 51 51 51 51 51 51 50 49
19 20 21 21 22 23 24 25 27 28 29 30 32 33 35 36 37 38 39 40 41 41 42 44 44 45 45 45 46 47 48 48 48 48 48 48 48 48 47 47 46 45 45 44
21 22 23 24 25 26 28 29 30 31 32 34 35 36 37 38 39 40 41 42 43 43 44 45 46 46 46 46 47 47 46 46 46 46 46 45 45 44 43 42 42 41 40 39
23 24 25 27 28 30 31 32 33 34 36 37 38 38 39 40 41 42 43 44 45 45 45 45 45 45 45 45 45 45 44 43 43 43 42 42 41 40 39 39 38 37 36 35
25 26 27 29 30 32 33 35 36 37 38 39 40 40 41 42 42 43 44 44 44 44 44 44 44 43 43 43 42 42 41 40 40 39 38 38 37 37 35 35 34 33 33 32
27 28 29 31 32 34 36 37 38 39 39 40 40 41 41 42 42 42 43 42 42 42 43 42 41 41 40 40 40 39 38 37 35 34 34 34 34 33 32 32 31 30 29 28
29 30 32 33 34 36 37 38 39 39 40 40 40 40 40 41 41 42 41 41 41 41 40 40 39 38 38 38 37 36 35 34 32 32 31 30 30 30 30 28 27 27 26 24
30 31 33 34 35 35 36 37 37 38 38 38 38 39 39 40 40 40 40 40 39 39 38 38 37 36 36 35 33 32 32 31 30 30 29 28 28 27 25 24 23 22 21 21
Wind_Direction
233 237 247 252 247 239 241 246 254 261 262 268 275 276 280 280 277 275 275 274 270 266 263 263 263 262 260 260 260 259 260 262 263 264 266 269 271 273 275 277 279 280 282 284
233 235 245 248 253 248 247 248 256 264 269 269 271 273 276 276 270 269 268 271 270 268 264 265 267 266 265 264 265 265 265 266 268 269 271 273 275 276 277 278 279 281 282 283
233 234 239 244 253 252 253 252 252 255 262 267 270 272 275 274 271 266 267 265 267 268 268 267 268 269 268 268 268 269 269 271 272 274 275 277 277 277 278 278 279 281 281 282
233 236 240 242 249 247 246 249 249 253 258 263 268 273 274 273 273 271 266 265 265 266 268 270 270 271 272 273 272 272 272 273 276 276 277 279 280 279 279 278 277 279 280 281
232 239 242 243 245 242 243 246 250 252 254 259 265 270 271 272 270 269 267 269 269 269 270 270 271 272 273 274 274 275 275 275 277 277 279 280 281 280 279 280 279 278 279 280
236 240 242 244 243 239 241 246 249 254 258 259 262 265 267 268 269 268 269 270 270 270 270 271 272 273 274 276 276 277 277 276 277 277 279 279 280 281 279 279 280 281 279 280
238 241 242 244 244 244 243 249 254 255 259 262 263 267 267 267 269 271 271 270 270 270 271 273 274 275 275 276 278 279 280 279 278 277 276 278 279 279 281 280 280 281 281 281
236 240 244 246 249 246 246 251 254 256 259 264 267 268 267 267 268 271 273 273 273 273 274 275 276 278 278 278 278 278 279 280 282 280 279 278 279 281 284 283 280 281 282 282
235 237 242 244 246 246 247 252 254 258 262 264 267 268 268 268 269 271 273 274 274 274 274 275 276 277 278 280 280 279 280 282 282 283 281 281 281 282 284 282 281 282 283 283
238 238 242 239 242 247 250 252 256 260 262 263 266 269 271 272 273 273 274 275 275 274 274 275 276 277 277 279 280 280 280 281 281 282 283 283 281 282 282 282 283 283 284 284
244 243 240 240 244 244 249 254 257 259 261 263 265 269 272 274 274 275 276 276 276 276 277 277 278 279 279 278 280 281 281 281 281 282 282 282 281 282 283 283 284 286 286 288
242 244 245 245 245 250 253 256 259 259 262 266 268 271 274 276 277 277 278 278 277 277 278 278 278 279 280 281 281 282 282 282 283 284 284 282 282 282 283 284 285 287 289 290
245 247 249 252 251 252 256 260 261 259 263 267 270 274 277 279 280 280 280 281 279 279 279 280 282 282 282 281 281 282 281 282 284 285 285 284 284 285 286 286 287 289 289 290
250 252 255 255 255 255 258 262 263 264 266 270 272 275 278 280 281 281 281 282 282 282 282 282 283 284 285 285 284 285 285 284 285 285 284 284 284 285 287 288 289 290 291 291
254 255 259 261 260 260 262 264 267 269 271 273 275 277 278 280 282 283 284 284 284 285 285 285 285 286 286 286 287 288 288 288 288 287 286 287 288 289 291 291 291 292 293 294
256 257 260 262 262 264 267 268 270 273 274 275 278 279 281 282 284 284 284 286 287 287 287 288 288 289 289 289 289 290 289 288 289 289 289 290 291 292 293 293 294 294 295 295
258 260 262 264 267 269 270 271 273 274 276 278 280 281 282 283 284 283 285 287 289 290 292 292 291 291 292 292 291 290 290 290 289 289 290 292 293 293 293 294 294 295 295 296
262 265 266 267 268 270 273 276 277 278 279 280 281 281 284 285 286 288 289 290 291 292 293 293 293 293 293 292 292 293 293 293 293 293 292 293 293 293 294 295 295 296 296 296
265 267 269 270 273 276 277 279 281 282 283 284 285 287 289 290 291 292 293 293 294 295 295 296 296 295 295 295 295 295 295 295 295 295 294 294 295 295 296 296 297 297 297 297
267 270 273 276 278 280 282 283 284 287 288 289 289 290 291 293 294 294 294 294 294 295 295 296 296 297 297 297 296 296 296 295 295 296 296 296 296 297 297 297 298 298 298 298
272 275 278 280 281 282 283 285 287 288 290 291 292 292 293 294 294 295 295 294 295 296 296 296 297 297 297 297 297 297 297 297 297 297 297 297 298 298 299 299 299 299 299 299
275 277 279 281 283 284 286 287 288 290 292 292 293 293 294 295 295 296 296 296 296 297 297 297 297 297 297 298 298 298 298 298 297 297 298 298 298 299 300 300 300 300 300 300
277 279 282 284 285 286 287 288 290 291 292 293 293 293 294 295 296 297 297 297 297 297 297 297 297 297 298 298 298 298 298 298 298 298 298 299 300 300 300 301 301 301 302 302
278 280 281 283 285 287 289 290 292 293 293 294 294 295 296 296 296 297 298 299 299 298 298 298 297 297 297 297 298 298 298 298 299 299 299 299 300 300 300 300 301 302 303 303
278 280 282 284 286 288 289 291 292 294 295 295 296 296 297 297 297 298 299 300 300 299 299 298 297 297 297 297 297 298 298 298 299 299 299 299 299 300 300 300 301 302 302 302
281 283 284 286 288 290 292 293 295 296 297 297 298 298 297 298 298 299 299 299 299 299 299 299 298 298 298 298 298 297 297 297 298 299 300 300 300 301 300 300 301 302 303 303
282 285 287 288 289 292 293 294 295 296 297 298 298 298 299 299 299 300 300 300 300 299 298 298 298 297 297 298 298 298 298 298 298 297 297 299 301 302 302 302 303 303 304 305